Location: Palomar Observatory
(33.3560°N, 116.8630°W)
Time: 03:05:47
(UTC-07:00)

Iridium 57 - Visible Passes

Search period start: 25 July 2016 00:00
Search period end: 04 August 2016 00:00
Orbit: 776 x 779 km, 86.4° (Epoch: 24 July)

Date Brightness Start Highest point End Pass type
(mag) Time Alt. Az. Time Alt. Az. Time Alt. Az.
25 Jul 6.2 20:50:00 10° NNW 20:55:05 56° W 21:00:10 10° SSW visible
26 Jul 5.5 20:16:23 10° N 20:21:37 75° E 20:26:48 10° S visible
27 Jul 8.1 21:24:45 10° NW 21:28:22 19° W 21:32:00 10° SW visible
28 Jul 7.1 20:50:19 10° NNW 20:55:04 37° W 20:59:49 10° SSW visible
29 Jul 5.8 20:16:27 10° N 20:21:40 74° W 20:26:51 10° S visible
30 Jul 8.5 21:26:02 10° NW 21:28:15 13° W 21:30:27 10° WSW visible
31 Jul 7.9 20:50:50 10° NNW 20:55:01 25° W 20:59:12 10° SW visible
01 Aug 6.7 20:16:40 10° NNW 20:21:40 48° W 20:26:39 10° SSW visible
03 Aug 8.4 20:51:40 10° NW 20:54:55 17° W 20:58:10 10° WSW visible
